Location: Drummondville
(45.8830°N, 72.4830°W)
Time: 23:16:12
(UTC-05:00)

N. Korean satellite - Pass Details

Date: 15 November 2017
Orbit: 460 x 515 km, 97.2° (Epoch: 17 November)

Event Time Altitude Azimuth Distance (km) Brightness Sun altitude
Rises 16:50:40 0° 132° (SE) 2,485 9.9 -6.0°
Reaches altitude 10° 16:53:04 10° 115° (ESE) 1,621 8.8 -6.4°
Maximum altitude 16:55:39 20° 67° (ENE) 1,151 7.8 -6.8°
Drops below altitude 10° 16:58:16 10° 19° (NNE) 1,648 8.9 -7.2°
Sets 17:00:43 0° 2° (N) 2,542 10.0 -7.6°
